Zurück zum Katalog

SSU 1

AktivWissenschaftLEO
NORAD 8835·PAYLOAD·🇺🇸 United States

Gestartet Apr 30, 1976 von Vandenberg Space Force Base

Loading…

Nächste Überflüge (nächste 24 Stunden)

TLE

AktuellSource: Space-Track

Epoche: Sep 13, 2026, 15:36 UTC

1 08835U 76038C   26256.65047574  .00000097  00000-0  10735-3 0  9992
2 08835  63.3646  19.2689 0373694 181.0468 178.9839 13.83131400371054

Verfolge SSU 1 in Echtzeit mit AllMySat

Download on the App Store